Date String (YYYY-MM-DD hh:mm:ss) UTC,Instrument flags,Ambient pressure (hPa),Sample flow (lpm),Bypass flow (lpm),Sample temperature (°C),Ambient temperature (°C),ASC tube jacket temperature (°C),LED temperature (°C),Box temperature (°C),Sample RH (%),Span deviation,Mass concentration (μg/m³),Mass concentration (μg/m³),Mass concentration (μg/m³)
DateTimeUTC,F1_M11,P_M11,Q1_M11,Q2_M11,T1_M11,T2_M11,T3_M11,T4_M11,T5_M11,U1_M11,ZSPAN_M11,X0_M11,X2_M11,X1_M11
2022-08-28 11:00:00,,0820.9,5.02,0.00,30.1,28.9,00.0,38.9,31.9,16.4,0000.0,0009.03,0003.83,0003.23
2022-08-28 11:01:00,,0820.9,5.00,0.00,30.1,28.9,00.0,38.9,32.0,16.3,0000.0,0009.55,0003.85,0003.23
2022-08-28 11:02:00,,0821.0,5.00,0.00,30.2,29.0,00.0,38.9,32.0,16.3,0000.0,0009.64,0003.87,0003.24
2022-08-28 11:03:00,,0820.9,5.00,0.00,30.2,29.0,00.0,38.9,32.0,16.3,0000.0,0009.41,0003.87,0003.24
2022-08-28 11:04:00,,0820.8,4.99,0.00,30.2,29.0,00.0,39.0,32.0,16.3,0000.0,0008.86,0003.87,0003.25
2022-08-28 11:05:00,,0820.9,5.01,0.00,30.2,29.0,00.0,39.0,32.0,16.2,0000.0,0009.09,0003.86,0003.25
2022-08-28 11:06:00,,0820.9,5.00,0.00,30.2,29.1,00.0,39.0,32.0,16.2,0000.0,0009.14,0003.83,0003.25
2022-08-28 11:07:00,,0820.9,4.99,0.00,30.2,29.1,00.0,39.0,32.0,16.2,0000.0,0009.56,0003.84,0003.25
2022-08-28 11:08:00,,0821.0,5.01,0.00,30.3,29.1,00.0,39.0,32.1,16.2,0000.0,0009.44,0003.83,0003.24
2022-08-28 11:09:00,,0821.0,5.00,0.00,30.3,29.1,00.0,39.0,32.1,16.2,0000.0,0009.38,0003.81,0003.23
2022-08-28 11:10:00,,0821.1,4.99,0.00,30.3,29.1,00.0,39.0,32.1,16.2,0000.0,0008.71,0003.81,0003.23
2022-08-28 11:11:00,,0821.0,5.01,0.00,30.3,29.2,00.0,39.1,32.1,16.2,0000.0,0008.98,0003.75,0003.22
2022-08-28 11:12:00,,0821.1,5.00,0.00,30.3,29.2,00.0,39.1,32.2,16.1,0000.0,0008.78,0003.70,0003.21
2022-08-28 11:13:00,,0821.1,4.99,0.00,30.4,29.2,00.0,39.1,32.2,16.1,0000.0,0008.75,0003.69,0003.21
2022-08-28 11:14:00,,0821.1,5.01,0.00,30.4,28.8,00.0,39.1,32.2,16.1,0000.0,0008.77,0003.66,0003.20
2022-08-28 11:15:00,,0821.1,5.00,0.00,30.3,27.6,00.0,39.1,32.1,16.1,0000.0,0009.26,0003.65,0003.20
2022-08-28 11:16:00,,0821.0,5.01,0.00,30.3,27.3,00.0,39.0,32.0,16.2,0000.0,0009.00,0003.62,0003.20
2022-08-28 11:17:00,,0821.1,4.99,0.00,30.2,27.4,00.0,39.0,31.8,16.2,0000.0,0009.00,0003.65,0003.20
2022-08-28 11:18:00,,0821.1,5.00,0.00,30.2,27.7,00.0,39.0,31.8,16.3,0000.0,0008.41,0003.64,0003.21
2022-08-28 11:19:00,,0821.0,5.00,0.00,30.1,27.9,00.0,38.9,31.7,16.4,0000.0,0008.26,0003.62,0003.21
2022-08-28 11:20:00,,0821.0,5.00,0.00,30.1,28.1,00.0,38.9,31.8,16.3,0000.0,0008.11,0003.58,0003.21
2022-08-28 11:21:00,,0821.0,5.00,0.00,30.1,28.3,00.0,38.9,31.8,16.4,0000.0,0007.88,0003.53,0003.21
2022-08-28 11:22:00,,0821.0,5.00,0.00,30.1,28.4,00.0,38.9,31.9,16.4,0000.0,0007.47,0003.56,0003.21
2022-08-28 11:23:00,,0820.9,4.98,0.00,30.1,28.6,00.0,38.9,31.9,16.4,0000.0,0006.93,0003.56,0003.20
2022-08-28 11:24:00,,0821.1,5.00,0.00,30.1,28.6,00.0,38.9,31.9,16.4,0000.0,0006.97,0003.57,0003.19
2022-08-28 11:25:00,,0821.0,5.00,0.00,30.1,28.7,00.0,38.9,31.9,16.4,0000.0,0007.19,0003.59,0003.20
2022-08-28 11:26:00,,0821.0,4.99,0.00,30.1,28.8,00.0,38.9,31.9,16.4,0000.0,0006.65,0003.57,0003.19
2022-08-28 11:27:00,,0821.0,5.01,0.00,30.1,28.8,00.0,38.9,32.0,16.3,0000.0,0007.24,0003.58,0003.19
2022-08-28 11:28:00,,0821.0,5.00,0.00,30.1,28.9,00.0,38.9,32.0,16.3,0000.0,0007.33,0003.56,0003.18
2022-08-28 11:29:00,,0820.9,5.01,0.00,30.2,28.9,00.0,39.0,32.0,16.3,0000.0,0007.42,0003.56,0003.17
2022-08-28 11:30:00,,0820.9,4.99,0.00,30.2,29.0,00.0,39.0,32.0,16.3,0000.0,0007.69,0003.56,0003.17
2022-08-28 11:31:00,,0821.0,5.01,0.00,30.2,29.0,00.0,39.0,32.0,16.2,0000.0,0007.87,0003.61,0003.17
2022-08-28 11:32:00,,0821.0,5.00,0.00,30.2,29.0,00.0,39.0,32.0,16.2,0000.0,0008.02,0003.66,0003.17
2022-08-28 11:33:00,,0821.1,5.01,0.00,30.2,29.0,00.0,39.0,32.0,16.2,0000.0,0007.95,0003.65,0003.17
2022-08-28 11:34:00,,0821.1,4.99,0.00,30.2,29.0,00.0,39.0,32.0,16.2,0000.0,0007.91,0003.65,0003.18
2022-08-28 11:35:00,,0821.1,5.01,0.00,30.2,29.0,00.0,39.0,32.0,16.2,0000.0,0007.88,0003.64,0003.18
2022-08-28 11:36:00,,0821.1,5.00,0.00,30.3,29.1,00.0,39.0,32.1,16.3,0000.0,0007.67,0003.63,0003.19
2022-08-28 11:37:00,,0821.2,5.00,0.00,30.3,29.1,00.0,39.0,32.1,16.3,0000.0,0007.88,0003.68,0003.21
2022-08-28 11:38:00,,0821.1,5.00,0.00,30.3,29.1,00.0,39.1,32.1,16.3,0000.0,0007.87,0003.73,0003.23
2022-08-28 11:39:00,,0821.1,5.00,0.00,30.3,29.1,00.0,39.1,32.1,16.3,0000.0,0007.73,0003.74,0003.24
2022-08-28 11:40:00,,0821.1,4.99,0.00,30.3,29.1,00.0,39.1,32.1,16.3,0000.0,0008.05,0003.73,0003.26
2022-08-28 11:41:00,,0821.2,4.99,0.00,30.3,28.3,00.0,39.1,32.1,16.3,0000.0,0008.00,0003.73,0003.27
2022-08-28 11:42:00,,0821.2,5.01,0.00,30.3,27.3,00.0,39.0,32.0,16.4,0000.0,0007.99,0003.78,0003.29
2022-08-28 11:43:00,,0821.2,5.01,0.00,30.3,27.3,00.0,39.0,32.0,16.4,0000.0,0008.04,0003.76,0003.31
2022-08-28 11:44:00,,0821.2,5.00,0.00,30.2,27.5,00.0,38.9,31.9,16.4,0000.0,0008.14,0003.80,0003.32
2022-08-28 11:45:00,,0821.3,5.01,0.00,30.1,27.7,00.0,38.9,31.8,16.5,0000.0,0008.61,0003.82,0003.34
2022-08-28 11:46:00,,0821.3,4.99,0.00,30.1,28.0,00.0,38.9,31.8,16.5,0000.0,0009.39,0003.84,0003.36
2022-08-28 11:47:00,,0821.4,5.00,0.00,30.1,28.2,00.0,38.9,31.8,16.6,0000.0,0009.40,0003.86,0003.37
2022-08-28 11:48:00,,0821.4,5.00,0.00,30.1,28.3,00.0,38.9,31.8,16.6,0000.0,0009.03,0003.83,0003.35
2022-08-28 11:49:00,,0821.3,4.99,0.00,30.1,28.5,00.0,38.9,31.8,16.6,0000.0,0008.83,0003.80,0003.35
2022-08-28 11:50:00,,0821.4,5.01,0.00,30.1,28.6,00.0,38.9,31.9,16.6,0000.0,0008.81,0003.82,0003.35
2022-08-28 11:51:00,,0821.3,4.99,0.00,30.1,28.6,00.0,38.9,31.9,16.6,0000.0,0008.43,0003.84,0003.35
2022-08-28 11:52:00,,0821.3,5.02,0.00,30.1,28.7,00.0,38.9,31.9,16.6,0000.0,0008.26,0003.85,0003.35
2022-08-28 11:53:00,,0821.3,4.99,0.00,30.1,28.8,00.0,38.9,31.9,16.6,0000.0,0008.13,0003.81,0003.35
2022-08-28 11:54:00,,0821.2,5.01,0.00,30.1,28.8,00.0,38.9,32.0,16.6,0000.0,0008.28,0003.82,0003.34
2022-08-28 11:55:00,,0821.3,4.99,0.00,30.1,28.9,00.0,38.9,32.0,16.6,0000.0,0008.74,0003.81,0003.34
2022-08-28 11:56:00,,0821.3,5.01,0.00,30.2,28.9,00.0,38.9,32.0,16.7,0000.0,0008.23,0003.80,0003.34
2022-08-28 11:57:00,,0821.3,4.99,0.00,30.2,28.9,00.0,38.9,32.0,16.6,0000.0,0007.48,0003.80,0003.34
2022-08-28 11:58:00,,0821.3,5.01,0.00,30.2,29.0,00.0,39.0,32.0,16.6,0000.0,0007.69,0003.80,0003.34
2022-08-28 11:59:00,,0821.3,4.99,0.00,30.2,29.0,00.0,39.0,32.0,16.6,0000.0,0008.04,0003.82,0003.35
